SCP
4 4 3 3 3 3 3 3 3 3 3 3 2 2 2 2 2 2 2 1 1 1 1 1 1 1 1 1 0 0 0 0 0 0 0 0 0 0 0 0 0 0 0
5 5 4 3 4 4 4 3 4 4 4 3 2 2 2 2 2 2 2 1 1 1 1 1 1 1 1 1 0 0 0 0 0 0 0 0 0 0 0 0 0 0 0
5 5 4 4 5 5 5 4 4 4 5 4 3 2 1 1 2 2 2 1 1 1 1 1 1 1 1 1 0 0 0 0 0 0 0 0 0 0 0 0 0 0 0
6 5 5 4 5 5 5 5 4 4 5 5 4 3 2 1 1 1 1 1 1 1 2 2 1 1 1 1 1 0 0 0 0 0 0 0 0 0 0 0 0 0 0
9 8 6 4 4 5 6 6 6 5 5 5 5 3 2 2 2 2 1 1 1 2 2 2 1 1 1 1 1 1 0 0 0 0 0 0 0 0 0 0 0 0 0
10 9 7 5 4 5 7 7 7 6 5 5 4 4 3 2 2 2 2 2 2 2 2 2 1 1 1 1 1 1 1 1 0 0 0 0 0 0 0 0 0 0 0
7 7 6 6 5 6 7 8 7 6 5 5 5 4 4 3 3 3 3 3 2 2 2 2 1 1 1 1 1 1 1 1 1 0 0 0 0 0 0 0 0 0 0
5 5 5 6 6 7 8 8 7 7 6 6 6 5 4 4 4 3 3 3 2 2 2 2 1 1 1 1 1 1 1 1 1 1 1 0 0 0 0 0 0 0 0
4 5 5 6 8 9 9 8 7 6 5 5 5 4 4 3 3 3 2 2 2 2 2 2 1 1 1 1 2 2 2 1 1 1 1 1 1 1 1 1 1 1 0
5 6 7 8 10 11 11 10 8 6 5 4 4 3 3 2 2 2 2 2 2 2 1 1 1 1 1 1 2 2 2 2 2 2 2 1 1 1 1 2 2 2 2
8 8 8 10 11 12 11 10 8 6 5 4 3 3 2 2 2 2 2 2 2 2 2 1 1 1 1 1 2 2 3 3 3 3 3 2 2 2 2 3 3 3 3
9 8 8 9 9 9 9 8 7 6 5 5 4 3 3 3 3 3 3 2 2 2 2 2 2 2 2 2 2 2 2 3 3 3 3 3 3 3 3 3 4 4 4
8 8 7 7 7 7 7 7 7 6 6 6 5 4 4 4 5 5 4 3 3 3 3 3 3 3 2 2 2 2 2 2 2 3 3 3 4 3 3 4 4 5 5
8 7 6 6 6 6 6 7 7 6 7 6 6 5 5 6 7 7 7 6 5 4 4 4 4 3 3 2 2 2 2 2 2 3 3 3 3 3 4 4 5 5 6
8 7 6 6 6 6 5 6 7 7 7 7 7 6 7 9 11 11 9 8 7 6 6 6 5 4 3 3 2 2 3 3 3 3 2 2 2 3 3 3 4 5 6
7 7 6 6 6 6 6 6 6 7 7 8 8 7 9 12 15 14 11 9 8 7 7 7 6 5 4 3 2 2 2 3 3 3 2 2 2 2 2 2 3 4 5
6 6 6 6 6 6 7 7 6 6 6 7 8 9 10 14 17 15 11 9 8 7 7 7 6 5 3 2 2 2 2 2 2 2 2 2 2 2 1 1 2 3 4
5 6 6 7 5 5 7 8 7 5 5 6 7 8 11 14 15 12 10 8 8 7 7 6 6 4 3 2 1 1 2 2 2 2 2 2 2 2 1 1 1 2 2
5 5 6 6 5 5 7 8 8 7 6 5 6 7 9 11 11 10 9 9 8 7 6 6 5 4 2 1 1 1 1 2 2 2 2 2 2 1 1 1 1 1 1
6 6 6 6 6 7 8 9 11 10 8 6 6 6 7 8 9 9 9 9 9 8 6 5 5 3 2 2 1 1 1 1 1 1 1 1 1 1 1 1 1 1 1
9 8 8 8 8 10 11 12 12 11 8 7 6 5 6 7 9 9 9 8 8 7 6 5 4 3 3 2 1 1 1 1 1 1 1 1 1 1 0 0 1 1 1
11 10 11 11 12 12 13 13 12 10 8 7 6 5 6 7 9 9 8 8 8 6 5 5 4 4 3 3 1 1 0 1 1 1 1 1 1 0 0 0 0 0 0
11 11 11 12 12 12 14 14 12 9 7 7 6 6 6 8 9 10 9 9 8 7 6 5 4 4 4 3 2 1 0 0 0 0 1 1 0 0 0 0 0 0 0
11 11 11 12 11 11 12 13 12 10 8 7 7 8 8 9 10 10 10 10 10 9 7 6 5 5 5 4 3 2 1 0 0 0 1 0 0 0 0 0 0 0 0
12 12 13 12 11 9 9 10 10 10 9 8 8 9 9 9 9 9 9 9 10 9 8 8 7 6 6 5 4 2 2 1 1 1 1 1 1 1 0 0 0 0 0
12 13 14 13 10 8 7 7 8 9 9 9 9 9 10 9 8 8 8 8 8 8 8 8 8 7 7 5 4 3 2 2 1 1 1 1 1 1 1 1 1 0 0
Wind_Speed
10 10 11 11 10 9 8 8 8 6 5 3 3 3 2 2 2 2 3 4 4 4 3 2 2 2 2 2 2 2 2 1 1 1 1 2 1 0 1 1 1 2 3
9 10 10 11 11 11 9 8 8 8 7 4 3 3 3 2 2 2 2 4 4 4 4 4 3 3 2 2 2 2 2 1 1 2 1 1 3 2 1 0 1 1 1
13 12 12 11 11 11 11 10 9 8 7 6 3 2 2 1 0 1 2 3 4 4 4 5 4 3 3 3 3 3 3 2 1 2 3 2 2 2 2 1 0 0 0
11 12 12 12 13 12 11 9 9 8 7 7 6 5 4 3 4 3 2 3 3 4 4 4 4 4 3 3 3 3 2 3 2 1 1 2 3 2 1 2 1 1 1
12 13 13 13 13 12 11 9 8 8 7 7 7 6 4 3 3 2 3 2 2 3 3 4 3 3 3 3 3 2 2 2 2 2 1 1 1 2 2 1 2 2 1
10 11 11 10 9 10 9 9 8 7 7 7 7 7 6 5 4 3 3 3 2 2 3 3 3 3 3 3 3 3 3 3 3 2 2 2 2 2 2 2 2 1 2
8 9 9 10 9 10 9 9 9 7 7 7 7 7 7 7 6 5 4 4 2 2 3 3 3 3 3 3 3 3 3 3 3 3 2 2 2 2 2 2 1 1 1
8 9 9 10 10 10 9 9 9 7 7 7 6 6 6 4 4 5 4 4 3 4 4 4 4 4 4 4 3 3 3 3 3 3 2 2 2 2 2 3 2 1 1
8 8 8 8 8 9 9 9 9 8 7 7 6 5 5 5 5 5 4 4 3 4 4 4 4 4 4 4 3 2 3 3 3 2 2 1 1 1 1 2 3 3 2
7 7 7 7 7 7 6 7 8 8 7 7 7 6 5 5 5 4 4 4 4 4 4 4 4 4 4 4 4 3 3 3 2 2 2 1 1 1 1 1 1 2 3
8 8 7 7 6 6 7 7 7 7 6 6 6 5 5 5 5 4 5 5 4 4 4 4 4 4 4 4 4 3 3 3 3 2 2 2 2 1 1 1 1 1 2
7 8 8 8 6 6 6 7 7 6 6 6 5 5 5 5 5 5 5 4 4 4 4 4 4 4 4 4 4 4 4 3 3 3 2 2 1 1 1 1 1 1 1
6 5 6 7 7 6 4 5 6 6 4 4 4 4 4 5 6 6 5 4 4 4 4 4 4 4 3 3 4 4 3 3 3 3 3 2 2 1 1 1 1 1 1
6 6 5 4 4 4 4 4 4 5 5 5 5 5 5 5 5 5 5 4 4 3 4 4 4 4 4 4 3 3 3 2 2 3 3 3 3 3 2 2 2 1 1
6 6 5 4 4 3 3 4 4 4 5 5 5 6 5 4 4 4 4 4 4 4 4 4 4 4 4 4 4 4 3 3 2 2 2 3 3 3 3 2 2 2 2
6 6 5 4 3 3 3 3 3 4 5 5 5 4 4 4 5 4 4 4 4 4 4 4 4 4 3 5 6 5 4 3 3 3 2 2 2 2 3 4 4 4 4
6 5 5 4 4 4 5 5 4 3 4 4 4 5 5 5 5 6 5 6 5 4 4 4 4 4 4 5 6 6 4 3 3 3 2 2 1 1 1 2 2 3 4
5 4 4 3 3 3 3 3 2 3 4 4 4 5 5 5 4 5 6 6 5 5 5 4 4 4 3 6 6 6 4 3 3 3 4 3 2 2 2 2 1 2 2
4 4 3 3 3 3 3 3 2 3 3 3 4 4 5 6 6 7 6 5 5 5 5 4 5 4 3 5 6 5 3 2 2 2 3 3 2 3 4 3 2 2 2
3 3 2 2 2 2 2 3 2 3 4 4 4 4 5 5 6 6 6 5 5 5 4 4 4 5 4 5 6 7 3 3 2 1 2 3 3 3 4 4 3 3 3
2 3 3 2 2 2 3 3 3 4 4 4 3 4 4 5 5 4 4 4 4 4 4 4 3 4 5 5 6 7 4 4 3 2 2 2 3 2 3 3 3 4 3
2 3 2 1 0 1 2 2 3 3 2 2 3 4 4 3 3 4 4 4 4 4 4 4 3 2 3 4 5 6 6 5 4 4 3 2 3 2 2 2 2 1 1
1 2 2 2 2 1 0 1 3 2 1 2 3 3 2 2 2 3 4 4 4 4 3 3 3 2 2 2 4 5 5 6 4 2 3 3 3 2 1 2 1 2 1
1 1 2 1 2 2 2 1 2 1 2 2 3 3 2 2 2 2 3 4 4 4 3 3 3 2 2 2 2 2 3 4 3 2 2 3 2 1 0 0 0 1 1
1 1 1 0 1 1 2 2 2 1 1 2 2 3 3 3 2 1 1 3 3 5 5 4 4 4 4 4 5 5 4 3 3 3 1 1 1 0 0 0 0 0 0
1 1 0 1 2 2 2 3 2 1 1 1 2 2 2 3 3 3 1 3 1 2 4 5 5 3 4 6 6 7 6 6 7 5 2 2 3 3 2 2 1 1 1
Wind_Direction
181 173 172 170 166 166 167 167 165 171 160 153 151 156 175 187 186 191 186 180 178 172 164 164 165 160 157 172 172 156 148 150 127 91 17 350 353 330 232 205 188 199 208
177 175 173 171 171 173 175 173 172 174 173 171 166 164 164 178 185 189 182 185 179 177 172 168 171 173 162 170 171 149 140 165 146 132 111 2 346 339 294 231 183 207 211
181 179 177 176 174 178 180 182 180 178 178 169 149 135 101 78 107 200 200 200 184 181 180 175 172 176 171 181 193 174 158 173 202 146 144 155 219 292 320 319 335 93 194
180 181 181 179 182 185 182 179 177 179 180 169 163 164 170 185 203 196 195 202 188 185 184 179 177 178 174 178 191 174 163 154 179 209 182 168 164 160 296 325 326 313 253
183 183 187 186 185 183 180 179 175 179 179 176 174 173 178 190 190 178 180 199 204 200 191 180 175 175 173 174 173 157 152 156 166 175 177 160 146 141 161 255 308 327 299
187 187 185 178 179 177 176 174 173 179 179 177 175 175 179 181 176 180 183 198 206 214 209 185 175 177 177 177 177 168 166 173 171 171 166 165 172 182 170 204 245 268 287
176 175 173 170 172 172 172 173 172 176 178 178 181 182 183 181 183 186 189 190 195 209 213 195 185 185 187 184 176 172 181 181 176 181 186 189 197 176 168 171 207 233 267
173 178 172 168 168 169 170 171 173 175 176 179 186 186 185 181 188 190 187 193 200 208 203 192 190 191 188 187 183 183 193 182 186 188 186 192 209 183 175 174 172 194 284
166 174 165 159 161 165 171 173 172 173 178 181 182 186 187 187 191 192 187 191 199 204 198 191 189 192 191 190 181 189 193 179 184 185 179 186 213 200 193 173 167 167 203
147 153 160 161 158 161 168 170 174 180 183 182 186 190 191 191 190 189 195 197 203 204 192 196 192 194 194 194 184 187 185 167 180 173 165 190 206 208 212 196 190 175 178
147 149 157 158 158 163 168 171 175 176 180 185 191 193 196 197 192 194 202 203 204 194 191 194 189 188 190 188 178 186 174 175 185 185 179 200 189 192 222 198 183 188 175
145 151 152 150 154 162 169 173 175 177 182 185 187 195 198 195 195 202 202 197 199 197 190 185 183 187 185 178 174 184 180 175 182 190 179 208 187 199 224 202 206 205 196
126 130 137 151 160 160 163 175 180 182 178 175 180 189 198 199 200 201 196 192 196 199 191 177 174 174 173 173 176 172 174 178 184 185 183 201 175 213 234 210 212 224 216
128 128 135 145 152 157 163 183 184 182 179 181 187 195 205 207 202 192 185 188 192 195 191 178 172 170 166 164 165 160 171 180 185 186 192 200 194 204 212 212 217 209 211
124 130 133 136 136 146 160 177 191 189 185 185 195 203 208 204 184 179 176 180 187 193 190 174 170 169 172 174 164 164 169 173 187 202 213 211 193 186 196 199 206 194 202
142 142 138 139 150 157 162 170 195 192 186 191 199 199 199 197 183 181 171 173 186 187 181 176 177 180 190 170 163 165 171 178 190 209 233 232 211 217 217 212 202 192 193
149 150 158 167 173 176 171 174 185 179 190 200 203 201 196 193 189 185 179 187 191 187 182 185 180 182 186 176 173 176 176 181 193 195 205 229 232 211 224 229 226 228 222
151 162 167 168 185 184 162 157 161 173 188 198 199 197 198 199 196 189 192 196 191 189 190 190 185 176 183 183 182 183 176 175 188 191 194 195 210 219 199 203 220 246 243
144 160 178 176 180 180 173 158 177 183 184 203 207 201 196 197 199 202 202 195 188 193 194 187 180 174 180 182 184 170 158 180 209 210 195 187 202 226 190 178 202 250 280
107 130 146 138 167 204 177 162 186 192 205 213 214 206 202 204 203 204 202 195 185 190 185 180 178 174 182 186 189 176 168 180 208 230 220 200 198 205 182 180 188 220 253
97 113 112 124 189 186 164 178 201 220 224 215 207 206 208 206 202 198 198 188 182 179 181 178 180 182 186 185 183 180 178 184 195 215 219 228 211 185 179 184 200 226 227
79 95 96 64 344 151 155 188 228 238 230 208 211 218 216 211 197 183 182 177 176 179 183 179 184 200 193 180 181 181 185 182 185 213 219 220 204 187 187 193 218 200 169
89 92 99 51 12 2 126 209 249 249 218 206 222 227 223 212 185 173 179 179 171 183 188 186 189 199 196 189 184 181 181 172 181 212 209 189 179 180 198 216 201 163 151
53 85 93 61 5 345 348 294 254 222 190 209 220 209 194 191 191 179 176 178 181 183 187 191 192 201 205 203 189 183 181 174 178 194 191 176 160 154 175 76 170 170 174
7 84 115 139 281 306 321 314 287 211 198 235 224 207 190 176 164 153 167 182 192 190 183 193 188 188 207 219 198 182 184 185 186 153 113 101 112 151 286 297 277 219 133
64 53 7 290 293 307 315 316 310 260 196 244 236 208 190 169 160 153 98 37 120 146 167 182 182 196 197 196 193 189 187 180 164 146 161 179 184 191 198 203 223 223 219